Zurück zum Katalog

SL-8 R/B

AktivPO
NORAD 14059·ROCKET BODY·🇷🇺 Russia

Gestartet May 6, 1983 von Plesetsk Cosmodrome

Loading…

Nächste Überflüge (nächste 24 Stunden)

TLE

AktuellSource: Space-Track

Epoche: Sep 14, 2026, 18:23 UTC

1 14059U 83042B   26257.76643337  .00000038  00000-0  21154-4 0  9995
2 14059  82.9677  74.7779 0043296 138.7256 221.7190 13.79156151180793

Verfolge SL-8 R/B in Echtzeit mit AllMySat

Download on the App Store